Location: ???????????
(55.5758°N, 38.4970°E)
Time: 18:23:23
(UTC+00:00)

COSMO-SKYMED 1 - Pass Details

Date: 15 November 2025
Orbit: 579 x 581 km, 97.9° (Epoch: 14 December)

Event Time Altitude Azimuth Distance (km) Brightness Sun altitude
Rises 02:20:17 0° 156° (SSE) 2,796 6.2 -22.3°
Reaches altitude 10° 02:22:26 10° 154° (SSE) 1,901 5.4 -21.9°
Maximum altitude 02:26:32 70° 71° (ENE) 625 2.6 -21.4°
Enters shadow 02:30:12 13° 349° (N) 1,724 4.7 -20.9°
